Location: Dulzura
(32.6442°N, 116.7814°W)
Time: 15:41:01
(UTC+00:00)

Tiangong - Visible Passes

Search period start: 04 December 2022 00:00
Search period end: 14 December 2022 00:00
Orbit: 386 x 394 km, 41.5° (Epoch: 04 December)

Date Brightness Start Highest point End Pass type
(mag) Time Alt. Az. Time Alt. Az. Time Alt. Az.
04 Dec 0.9 02:40:13 10° NW 02:40:27 11° NW 02:40:27 11° NW visible
05 Dec -0.1 01:41:56 10° NW 01:44:06 17° N 01:45:11 14° NNE visible
06 Dec 0.3 02:21:10 10° NW 02:22:14 15° NNW 02:22:14 15° NNW visible
07 Dec -0.1 01:23:00 10° NW 01:25:08 16° N 01:26:58 11° NE visible
08 Dec -0.5 02:01:45 10° NW 02:04:03 23° N 02:04:03 23° N visible
09 Dec -0.3 01:03:40 10° NW 01:06:00 19° N 01:08:21 10° ENE visible
09 Dec 0.4 02:40:13 10° NW 02:41:12 18° NW 02:41:12 18° NW visible
10 Dec -1.3 01:42:07 10° NW 01:45:04 34° NNE 01:46:09 26° ENE visible
11 Dec -1.8 02:20:38 10° WNW 02:23:35 65° WSW 02:23:35 65° WSW visible
12 Dec -2.1 01:22:20 10° NW 01:25:30 63° NNE 01:28:39 10° ESE visible
12 Dec 1.1 03:00:08 10° W 03:01:16 14° WSW 03:01:16 14° WSW visible
13 Dec -0.3 02:01:07 10° W 02:03:58 30° SW 02:06:48 10° SSE visible
